Year,Month,Day,Hour,Minute,Value (Times are PST for temperature in C)
2014,05,28,00,00,9.80
2014,05,28,00,01,9.70
2014,05,28,00,02,9.70
2014,05,28,00,03,9.70
2014,05,28,00,04,9.70
2014,05,28,00,05,9.70
2014,05,28,00,06,9.70
2014,05,28,00,07,9.70
2014,05,28,00,08,9.70
2014,05,28,00,09,9.70
2014,05,28,00,10,9.70
2014,05,28,00,11,9.70
2014,05,28,00,12,9.70
2014,05,28,00,13,9.60
2014,05,28,00,14,9.60
2014,05,28,00,15,9.70
2014,05,28,00,16,9.70
2014,05,28,00,17,9.70
2014,05,28,00,18,9.70
2014,05,28,00,19,9.70
2014,05,28,00,20,9.70
2014,05,28,00,21,9.70
2014,05,28,00,22,9.70
2014,05,28,00,23,9.70
2014,05,28,00,24,9.70
2014,05,28,00,25,9.70
2014,05,28,00,26,9.70
2014,05,28,00,27,9.70
2014,05,28,00,28,9.70
2014,05,28,00,29,9.70
2014,05,28,00,30,9.70
2014,05,28,00,31,9.70
2014,05,28,00,32,9.70
2014,05,28,00,33,9.70
2014,05,28,00,34,9.60
2014,05,28,00,35,9.60
2014,05,28,00,36,9.70
2014,05,28,00,37,9.60
2014,05,28,00,38,9.60
2014,05,28,00,39,9.60
2014,05,28,00,40,9.60
2014,05,28,00,41,9.60
2014,05,28,00,42,9.60
2014,05,28,00,43,9.60
2014,05,28,00,44,9.60
2014,05,28,00,45,9.50
2014,05,28,00,46,9.50
2014,05,28,00,47,9.50
2014,05,28,00,48,9.50
2014,05,28,00,49,9.50
2014,05,28,00,50,9.50
2014,05,28,00,51,9.50
2014,05,28,00,52,9.50
2014,05,28,00,53,9.60
2014,05,28,00,54,9.60
2014,05,28,00,55,9.60
2014,05,28,00,56,9.60
2014,05,28,00,57,9.60
2014,05,28,00,58,9.60
2014,05,28,00,59,9.60
2014,05,28,01,00,9.50
2014,05,28,01,01,9.50
2014,05,28,01,02,9.50
2014,05,28,01,03,9.50
2014,05,28,01,04,9.50
2014,05,28,01,05,9.50
2014,05,28,01,06,9.50
2014,05,28,01,07,9.50
2014,05,28,01,08,9.40
2014,05,28,01,09,9.40
2014,05,28,01,10,9.40
2014,05,28,01,11,9.40
2014,05,28,01,12,9.40
2014,05,28,01,13,9.40
2014,05,28,01,14,9.40
2014,05,28,01,15,9.30
2014,05,28,01,16,9.30
2014,05,28,01,17,9.30
2014,05,28,01,18,9.30
2014,05,28,01,19,9.20
2014,05,28,01,20,9.20
2014,05,28,01,21,9.20
2014,05,28,01,22,9.20
2014,05,28,01,23,9.10
2014,05,28,01,24,9.10
2014,05,28,01,25,9.10
2014,05,28,01,26,9.10
2014,05,28,01,27,9.10
2014,05,28,01,28,9.00
2014,05,28,01,29,9.00
2014,05,28,01,30,9.00
2014,05,28,01,31,9.00
2014,05,28,01,32,9.00
2014,05,28,01,33,9.00
2014,05,28,01,34,9.00
2014,05,28,01,35,9.00
2014,05,28,01,36,9.00
2014,05,28,01,37,9.00
2014,05,28,01,38,9.00
2014,05,28,01,39,9.00
2014,05,28,01,40,8.90
2014,05,28,01,41,8.90
2014,05,28,01,42,8.90
2014,05,28,01,43,8.80
2014,05,28,01,44,8.80
2014,05,28,01,45,8.80
2014,05,28,01,46,8.80
2014,05,28,01,47,8.70
2014,05,28,01,48,8.70
2014,05,28,01,49,8.70
2014,05,28,01,50,8.70
2014,05,28,01,51,8.70
2014,05,28,01,52,8.70
2014,05,28,01,53,8.70
2014,05,28,01,54,8.70
2014,05,28,01,55,8.70
2014,05,28,01,56,8.70
2014,05,28,01,57,8.70
2014,05,28,01,58,8.70
2014,05,28,01,59,8.70
2014,05,28,02,00,8.70
2014,05,28,02,01,8.70
2014,05,28,02,02,8.70
2014,05,28,02,03,8.60
2014,05,28,02,04,8.50
2014,05,28,02,05,8.40
2014,05,28,02,06,8.30
2014,05,28,02,07,8.30
2014,05,28,02,08,8.20
2014,05,28,02,09,8.20
2014,05,28,02,10,8.20
2014,05,28,02,11,8.10
2014,05,28,02,12,8.00
2014,05,28,02,13,8.00
2014,05,28,02,14,8.00
2014,05,28,02,15,8.00
2014,05,28,02,16,8.00
2014,05,28,02,17,8.00
2014,05,28,02,18,8.00
2014,05,28,02,19,8.00
2014,05,28,02,20,8.00
2014,05,28,02,21,8.10
2014,05,28,02,22,8.10
2014,05,28,02,23,8.10
2014,05,28,02,24,8.10
2014,05,28,02,25,8.00
2014,05,28,02,26,8.00
2014,05,28,02,27,7.90
2014,05,28,02,28,7.90
2014,05,28,02,29,7.90
2014,05,28,02,30,7.80
2014,05,28,02,31,7.80
2014,05,28,02,32,7.80
2014,05,28,02,33,7.80
2014,05,28,02,34,7.80
2014,05,28,02,35,7.80
2014,05,28,02,36,7.80
2014,05,28,02,37,7.80
2014,05,28,02,38,7.80
2014,05,28,02,39,7.80
2014,05,28,02,40,7.80
2014,05,28,02,41,7.80
2014,05,28,02,42,7.80
2014,05,28,02,43,7.90
2014,05,28,02,44,7.90
2014,05,28,02,45,7.90
2014,05,28,02,46,7.90
2014,05,28,02,47,7.90
2014,05,28,02,48,8.00
2014,05,28,02,49,8.00
2014,05,28,02,50,7.90
2014,05,28,02,51,7.90
2014,05,28,02,52,7.90
2014,05,28,02,53,7.90
2014,05,28,02,54,7.80
2014,05,28,02,55,7.80
2014,05,28,02,56,7.80
2014,05,28,02,57,7.80
2014,05,28,02,58,7.80
2014,05,28,02,59,7.80
2014,05,28,03,00,7.80
2014,05,28,03,01,7.80
2014,05,28,03,02,7.80
2014,05,28,03,03,7.80
2014,05,28,03,04,7.80
2014,05,28,03,05,7.80
2014,05,28,03,06,7.80
2014,05,28,03,07,7.80
2014,05,28,03,08,7.80
2014,05,28,03,09,7.80
2014,05,28,03,10,7.80
2014,05,28,03,11,7.80
2014,05,28,03,12,7.80
2014,05,28,03,13,7.80
2014,05,28,03,14,7.80
2014,05,28,03,15,7.80
2014,05,28,03,16,7.80
2014,05,28,03,17,7.80
2014,05,28,03,18,7.80
2014,05,28,03,19,7.80
2014,05,28,03,20,7.80
2014,05,28,03,21,7.80
2014,05,28,03,22,7.70
2014,05,28,03,23,7.70
2014,05,28,03,24,7.70
2014,05,28,03,25,7.70
2014,05,28,03,26,7.70
2014,05,28,03,27,7.70
2014,05,28,03,28,7.70
2014,05,28,03,29,7.70
2014,05,28,03,30,7.60
2014,05,28,03,31,7.60
2014,05,28,03,32,7.60
2014,05,28,03,33,7.60
2014,05,28,03,34,7.60
2014,05,28,03,35,7.60
2014,05,28,03,36,7.60
2014,05,28,03,37,7.60
2014,05,28,03,38,7.60
2014,05,28,03,39,7.60
2014,05,28,03,40,7.60
2014,05,28,03,41,7.60
2014,05,28,03,42,7.60
2014,05,28,03,43,7.60
2014,05,28,03,44,7.70
2014,05,28,03,45,7.70
2014,05,28,03,46,7.60
2014,05,28,03,47,7.60
2014,05,28,03,48,7.60
2014,05,28,03,49,7.50
2014,05,28,03,50,7.50
2014,05,28,03,51,7.50
2014,05,28,03,52,7.50
2014,05,28,03,53,7.50
2014,05,28,03,54,7.50
2014,05,28,03,55,7.50
2014,05,28,03,56,7.50
2014,05,28,03,57,7.50
2014,05,28,03,58,7.50
2014,05,28,03,59,7.60
2014,05,28,04,00,7.60
2014,05,28,04,01,7.60
2014,05,28,04,02,7.70
2014,05,28,04,03,7.70
2014,05,28,04,04,7.70
2014,05,28,04,05,7.60
2014,05,28,04,06,7.60
2014,05,28,04,07,7.50
2014,05,28,04,08,7.40
2014,05,28,04,09,7.30
2014,05,28,04,10,7.30
2014,05,28,04,11,7.30
2014,05,28,04,12,7.20
2014,05,28,04,13,7.20
2014,05,28,04,14,7.20
2014,05,28,04,15,7.20
2014,05,28,04,16,7.20
2014,05,28,04,17,7.20
2014,05,28,04,18,7.20
2014,05,28,04,19,7.20
2014,05,28,04,20,7.20
2014,05,28,04,21,7.20
2014,05,28,04,22,7.20
2014,05,28,04,23,7.20
2014,05,28,04,24,7.20
2014,05,28,04,25,7.10
2014,05,28,04,26,7.10
2014,05,28,04,27,7.10
2014,05,28,04,28,7.10
2014,05,28,04,29,7.10
2014,05,28,04,30,7.10
2014,05,28,04,31,7.10
2014,05,28,04,32,7.20
2014,05,28,04,33,7.20
2014,05,28,04,34,7.20
2014,05,28,04,35,7.10
2014,05,28,04,36,7.10
2014,05,28,04,37,7.10
2014,05,28,04,38,7.10
2014,05,28,04,39,7.10
2014,05,28,04,40,7.10
2014,05,28,04,41,7.10
2014,05,28,04,42,7.10
2014,05,28,04,43,7.10
2014,05,28,04,44,7.00
2014,05,28,04,45,7.10
2014,05,28,04,46,7.10
2014,05,28,04,47,7.10
2014,05,28,04,48,7.10
2014,05,28,04,49,7.10
2014,05,28,04,50,7.10
2014,05,28,04,51,7.20
2014,05,28,04,52,7.20
2014,05,28,04,53,7.30
2014,05,28,04,54,7.30
2014,05,28,04,55,7.30
2014,05,28,04,56,7.30
2014,05,28,04,57,7.30
2014,05,28,04,58,7.30
2014,05,28,04,59,7.30
2014,05,28,05,00,7.30
2014,05,28,05,01,7.20
2014,05,28,05,02,7.20
2014,05,28,05,03,7.10
2014,05,28,05,04,7.10
2014,05,28,05,05,7.10
2014,05,28,05,06,7.10
2014,05,28,05,07,7.10
2014,05,28,05,08,7.10
2014,05,28,05,09,7.10
2014,05,28,05,10,7.10
2014,05,28,05,11,7.20
2014,05,28,05,12,7.20
2014,05,28,05,13,7.10
2014,05,28,05,14,7.10
2014,05,28,05,15,7.10
2014,05,28,05,16,7.10
2014,05,28,05,17,7.10
2014,05,28,05,18,7.10
2014,05,28,05,19,7.00
2014,05,28,05,20,7.00
2014,05,28,05,21,7.00
2014,05,28,05,22,7.00
2014,05,28,05,23,7.00
2014,05,28,05,24,6.90
2014,05,28,05,25,6.90
2014,05,28,05,26,7.00
2014,05,28,05,27,7.00
2014,05,28,05,28,7.00
2014,05,28,05,29,7.10
2014,05,28,05,30,7.10
2014,05,28,05,31,7.20
2014,05,28,05,32,7.20
2014,05,28,05,33,7.20
2014,05,28,05,34,7.20
2014,05,28,05,35,7.20
2014,05,28,05,36,7.20
2014,05,28,05,37,7.20
2014,05,28,05,38,7.20
2014,05,28,05,39,7.20
2014,05,28,05,40,7.20
2014,05,28,05,41,7.20
2014,05,28,05,42,7.20
2014,05,28,05,43,7.20
2014,05,28,05,44,7.30
2014,05,28,05,45,7.30
2014,05,28,05,46,7.30
2014,05,28,05,47,7.30
2014,05,28,05,48,7.30
2014,05,28,05,49,7.30
2014,05,28,05,50,7.40
2014,05,28,05,51,7.40
2014,05,28,05,52,7.40
2014,05,28,05,53,7.50
2014,05,28,05,54,7.50
2014,05,28,05,55,7.50
2014,05,28,05,56,7.60
2014,05,28,05,57,7.60
2014,05,28,05,58,7.60
2014,05,28,05,59,7.60
2014,05,28,06,00,7.60
2014,05,28,06,01,7.60
2014,05,28,06,02,7.60
2014,05,28,06,03,7.60
2014,05,28,06,04,7.60
2014,05,28,06,05,7.70
2014,05,28,06,06,7.70
2014,05,28,06,07,7.70
2014,05,28,06,08,7.70
2014,05,28,06,09,7.70
2014,05,28,06,10,7.70
2014,05,28,06,11,7.70
2014,05,28,06,12,7.70
2014,05,28,06,13,7.80
2014,05,28,06,14,7.80
2014,05,28,06,15,7.80
2014,05,28,06,16,7.80
2014,05,28,06,17,7.80
2014,05,28,06,18,7.90
2014,05,28,06,19,7.90
2014,05,28,06,20,8.00
2014,05,28,06,21,8.00
2014,05,28,06,22,8.00
2014,05,28,06,23,8.10
2014,05,28,06,24,8.10
2014,05,28,06,25,8.10
2014,05,28,06,26,8.10
2014,05,28,06,27,8.10
2014,05,28,06,28,8.10
2014,05,28,06,29,8.00
2014,05,28,06,30,8.00
2014,05,28,06,31,7.90
2014,05,28,06,32,7.90
2014,05,28,06,33,7.90
2014,05,28,06,34,7.90
2014,05,28,06,35,7.90
2014,05,28,06,36,7.90
2014,05,28,06,37,7.90
2014,05,28,06,38,7.90
2014,05,28,06,39,8.00
2014,05,28,06,40,8.00
2014,05,28,06,41,8.00
2014,05,28,06,42,8.10
2014,05,28,06,43,8.10
2014,05,28,06,44,8.20
2014,05,28,06,45,8.20
2014,05,28,06,46,8.30
2014,05,28,06,47,8.40
2014,05,28,06,48,8.50
2014,05,28,06,49,8.60
2014,05,28,06,50,8.70
2014,05,28,06,51,8.90
2014,05,28,06,52,8.90
2014,05,28,06,53,9.00
2014,05,28,06,54,9.20
2014,05,28,06,55,9.40
2014,05,28,06,56,9.50
2014,05,28,06,57,9.60
2014,05,28,06,58,9.70
2014,05,28,06,59,9.90
2014,05,28,07,00,9.90
2014,05,28,07,01,10.10
2014,05,28,07,02,10.20
2014,05,28,07,03,10.30
2014,05,28,07,04,10.40
2014,05,28,07,05,10.50
2014,05,28,07,06,10.60
2014,05,28,07,07,10.70
2014,05,28,07,08,10.70
2014,05,28,07,09,10.80
2014,05,28,07,10,10.90
2014,05,28,07,11,10.90
2014,05,28,07,12,10.90
2014,05,28,07,13,11.00
2014,05,28,07,14,11.10
2014,05,28,07,15,11.20
2014,05,28,07,16,11.20
2014,05,28,07,17,11.20
2014,05,28,07,18,11.30
2014,05,28,07,19,11.30
2014,05,28,07,20,11.40
2014,05,28,07,21,11.40
2014,05,28,07,22,11.50
2014,05,28,07,23,11.60
2014,05,28,07,24,11.60
2014,05,28,07,25,11.70
2014,05,28,07,26,11.70
2014,05,28,07,27,11.60
2014,05,28,07,28,11.70
2014,05,28,07,29,11.80
2014,05,28,07,30,11.80
2014,05,28,07,31,11.90
2014,05,28,07,32,12.00
2014,05,28,07,33,12.10
2014,05,28,07,34,12.10
2014,05,28,07,35,12.10
2014,05,28,07,36,12.20
2014,05,28,07,37,12.30
2014,05,28,07,38,12.30
2014,05,28,07,39,12.30
2014,05,28,07,40,12.30
2014,05,28,07,41,12.30
2014,05,28,07,42,12.30
2014,05,28,07,43,12.30
2014,05,28,07,44,12.30
2014,05,28,07,45,12.30
2014,05,28,07,46,12.30
2014,05,28,07,47,12.20
2014,05,28,07,48,12.20
2014,05,28,07,49,12.20
2014,05,28,07,50,12.20
2014,05,28,07,51,12.30
2014,05,28,07,52,12.30
2014,05,28,07,53,12.30
2014,05,28,07,54,12.30
2014,05,28,07,55,12.30
2014,05,28,07,56,12.30
2014,05,28,07,57,12.30
2014,05,28,07,58,12.30
2014,05,28,07,59,12.30
2014,05,28,08,00,12.40
2014,05,28,08,01,12.40
2014,05,28,08,02,12.40
2014,05,28,08,03,12.40
2014,05,28,08,04,12.40
2014,05,28,08,05,12.30
2014,05,28,08,06,12.20
2014,05,28,08,07,12.20
2014,05,28,08,08,12.10
2014,05,28,08,09,12.10
2014,05,28,08,10,12.10
2014,05,28,08,11,12.10
2014,05,28,08,12,12.00
2014,05,28,08,13,12.00
2014,05,28,08,14,11.90
2014,05,28,08,15,11.90
2014,05,28,08,16,11.90
2014,05,28,08,17,11.80
2014,05,28,08,18,11.80
2014,05,28,08,19,11.80
2014,05,28,08,20,11.80
2014,05,28,08,21,11.80
2014,05,28,08,22,11.80
2014,05,28,08,23,11.80
2014,05,28,08,24,11.80
2014,05,28,08,25,11.80
2014,05,28,08,26,11.80
2014,05,28,08,27,11.80
2014,05,28,08,28,11.80
2014,05,28,08,29,11.80
2014,05,28,08,30,11.80
2014,05,28,08,31,11.80
2014,05,28,08,32,11.80
2014,05,28,08,33,11.80
2014,05,28,08,34,11.80
2014,05,28,08,35,11.80
2014,05,28,08,36,11.80
2014,05,28,08,37,11.80
2014,05,28,08,38,11.90
2014,05,28,08,39,11.80
2014,05,28,08,40,11.90
2014,05,28,08,41,11.90
2014,05,28,08,42,11.80
2014,05,28,08,43,11.80
2014,05,28,08,44,11.80
2014,05,28,08,45,11.80
2014,05,28,08,46,11.80
2014,05,28,08,47,11.80
2014,05,28,08,48,11.80
2014,05,28,08,49,11.80
2014,05,28,08,50,11.80
2014,05,28,08,51,11.80
2014,05,28,08,52,11.80
2014,05,28,08,53,11.80
2014,05,28,08,54,11.80
2014,05,28,08,55,11.80
2014,05,28,08,56,11.80
2014,05,28,08,57,11.80
2014,05,28,08,58,11.80
2014,05,28,08,59,11.80
2014,05,28,09,00,11.80
2014,05,28,09,01,11.90
2014,05,28,09,02,11.90
2014,05,28,09,03,12.00
2014,05,28,09,04,12.00
2014,05,28,09,05,12.00
2014,05,28,09,06,12.10
2014,05,28,09,07,12.10
2014,05,28,09,08,12.10
2014,05,28,09,09,12.20
2014,05,28,09,10,12.20
2014,05,28,09,11,12.30
2014,05,28,09,12,12.30
2014,05,28,09,13,12.40
2014,05,28,09,14,12.50
2014,05,28,09,15,12.50
2014,05,28,09,16,12.60
2014,05,28,09,17,12.60
2014,05,28,09,18,12.60
2014,05,28,09,19,12.60
2014,05,28,09,20,12.70
2014,05,28,09,21,12.70
2014,05,28,09,22,12.70
2014,05,28,09,23,12.70
2014,05,28,09,24,12.80
2014,05,28,09,25,12.80
2014,05,28,09,26,12.80
2014,05,28,09,27,12.80
2014,05,28,09,28,12.80
2014,05,28,09,29,12.80
2014,05,28,09,30,12.80
2014,05,28,09,31,12.80
2014,05,28,09,32,12.80
2014,05,28,09,33,12.80
2014,05,28,09,34,12.80
2014,05,28,09,35,12.90
2014,05,28,09,36,13.00
2014,05,28,09,37,13.00
2014,05,28,09,38,13.10
2014,05,28,09,39,13.20
2014,05,28,09,40,13.20
2014,05,28,09,41,13.30
2014,05,28,09,42,13.30
2014,05,28,09,43,13.40
2014,05,28,09,44,13.50
2014,05,28,09,45,13.50
2014,05,28,09,46,13.50
2014,05,28,09,47,13.50
2014,05,28,09,48,13.50
2014,05,28,09,49,13.50
2014,05,28,09,50,13.50
2014,05,28,09,51,13.40
2014,05,28,09,52,13.30
2014,05,28,09,53,13.30
2014,05,28,09,54,13.20
2014,05,28,09,55,13.20
2014,05,28,09,56,13.30
2014,05,28,09,57,13.20
2014,05,28,09,58,13.20
2014,05,28,09,59,13.20
2014,05,28,10,00,13.20
2014,05,28,10,01,13.20
2014,05,28,10,02,13.20
2014,05,28,10,03,13.20
2014,05,28,10,04,13.30
2014,05,28,10,05,13.30
2014,05,28,10,06,13.30
2014,05,28,10,07,13.30
2014,05,28,10,08,13.40
2014,05,28,10,09,13.50
2014,05,28,10,10,13.60
2014,05,28,10,11,13.70
2014,05,28,10,12,13.70
2014,05,28,10,13,13.60
2014,05,28,10,14,13.60
2014,05,28,10,15,13.60
2014,05,28,10,16,13.60
2014,05,28,10,17,13.60
2014,05,28,10,18,13.70
2014,05,28,10,19,13.70
2014,05,28,10,20,13.80
2014,05,28,10,21,13.80
2014,05,28,10,22,13.80
2014,05,28,10,23,13.90
2014,05,28,10,24,13.90
2014,05,28,10,25,14.00
2014,05,28,10,26,14.10
2014,05,28,10,27,14.10
2014,05,28,10,28,14.10
2014,05,28,10,29,14.20
2014,05,28,10,30,14.20
2014,05,28,10,31,14.20
2014,05,28,10,32,14.20
2014,05,28,10,33,14.20
2014,05,28,10,34,14.20
2014,05,28,10,35,14.10
2014,05,28,10,36,14.00
2014,05,28,10,37,14.00
2014,05,28,10,38,13.90
2014,05,28,10,39,13.80
2014,05,28,10,40,13.80
2014,05,28,10,41,13.70
2014,05,28,10,42,13.70
2014,05,28,10,43,13.70
2014,05,28,10,44,13.70
2014,05,28,10,45,13.70
2014,05,28,10,46,13.70
2014,05,28,10,47,13.70
2014,05,28,10,48,13.70
2014,05,28,10,49,13.70
2014,05,28,10,50,13.70
2014,05,28,10,51,13.70
2014,05,28,10,52,13.70
2014,05,28,10,53,13.70
2014,05,28,10,54,13.70
2014,05,28,10,55,13.70
2014,05,28,10,56,13.70
2014,05,28,10,57,13.70
2014,05,28,10,58,13.70
2014,05,28,10,59,13.70
2014,05,28,11,00,13.70
2014,05,28,11,01,13.70
2014,05,28,11,02,13.70
2014,05,28,11,03,13.70
2014,05,28,11,04,13.70
2014,05,28,11,05,13.70
2014,05,28,11,06,13.70
2014,05,28,11,07,13.70
2014,05,28,11,08,13.70
2014,05,28,11,09,13.70
2014,05,28,11,10,13.70
2014,05,28,11,11,13.70
2014,05,28,11,12,13.70
2014,05,28,11,13,13.70
2014,05,28,11,14,13.70
2014,05,28,11,15,13.70
2014,05,28,11,16,13.70
2014,05,28,11,17,13.70
2014,05,28,11,18,13.70
2014,05,28,11,19,13.70
2014,05,28,11,20,13.70
2014,05,28,11,21,13.70
2014,05,28,11,22,13.80
2014,05,28,11,23,13.80
2014,05,28,11,24,13.90
2014,05,28,11,25,13.90
2014,05,28,11,26,14.00
2014,05,28,11,27,14.00
2014,05,28,11,28,14.00
2014,05,28,11,29,14.00
2014,05,28,11,30,14.10
2014,05,28,11,31,14.20
2014,05,28,11,32,14.10
2014,05,28,11,33,14.10
2014,05,28,11,34,14.00
2014,05,28,11,35,14.00
2014,05,28,11,36,14.00
2014,05,28,11,37,13.90
2014,05,28,11,38,13.90
2014,05,28,11,39,13.80
2014,05,28,11,40,13.90
2014,05,28,11,41,13.90
2014,05,28,11,42,13.90
2014,05,28,11,43,13.90
2014,05,28,11,44,14.00
2014,05,28,11,45,14.00
2014,05,28,11,46,14.00
2014,05,28,11,47,14.10
2014,05,28,11,48,14.10
2014,05,28,11,49,14.20
2014,05,28,11,50,14.20
2014,05,28,11,51,14.20
2014,05,28,11,52,14.20
2014,05,28,11,53,14.20
2014,05,28,11,54,14.20
2014,05,28,11,55,14.20
2014,05,28,11,56,14.20
2014,05,28,11,57,14.00
2014,05,28,11,58,14.00
2014,05,28,11,59,13.90
2014,05,28,12,00,13.80
2014,05,28,12,01,13.80
2014,05,28,12,02,13.80
2014,05,28,12,03,13.80
2014,05,28,12,04,13.90
2014,05,28,12,05,13.90
2014,05,28,12,06,13.80
2014,05,28,12,07,13.80
2014,05,28,12,08,13.70
2014,05,28,12,09,13.60
2014,05,28,12,10,13.50
2014,05,28,12,11,13.40
2014,05,28,12,12,13.30
2014,05,28,12,13,13.30
2014,05,28,12,14,13.30
2014,05,28,12,15,13.30
2014,05,28,12,16,13.30
2014,05,28,12,17,13.30
2014,05,28,12,18,13.40
2014,05,28,12,19,13.50
2014,05,28,12,20,13.60
2014,05,28,12,21,13.70
2014,05,28,12,22,13.70
2014,05,28,12,23,13.70
2014,05,28,12,24,13.70
2014,05,28,12,25,13.70
2014,05,28,12,26,13.60
2014,05,28,12,27,13.60
2014,05,28,12,28,13.50
2014,05,28,12,29,13.40
2014,05,28,12,30,13.40
2014,05,28,12,31,13.30
2014,05,28,12,32,13.30
2014,05,28,12,33,13.20
2014,05,28,12,34,13.20
2014,05,28,12,35,13.20
2014,05,28,12,36,13.20
2014,05,28,12,37,13.20
2014,05,28,12,38,13.30
2014,05,28,12,39,13.30
2014,05,28,12,40,13.40
2014,05,28,12,41,13.40
2014,05,28,12,42,13.50
2014,05,28,12,43,13.50
2014,05,28,12,44,13.60
2014,05,28,12,45,13.70
2014,05,28,12,46,13.70
2014,05,28,12,47,13.70
2014,05,28,12,48,13.70
2014,05,28,12,49,13.70
2014,05,28,12,50,13.70
2014,05,28,12,51,13.70
2014,05,28,12,52,13.80
2014,05,28,12,53,13.80
2014,05,28,12,54,13.80
2014,05,28,12,55,13.80
2014,05,28,12,56,13.80
2014,05,28,12,57,13.80
2014,05,28,12,58,13.80
2014,05,28,12,59,13.80
2014,05,28,13,00,13.70
2014,05,28,13,01,13.60
2014,05,28,13,02,13.50
2014,05,28,13,03,13.50
2014,05,28,13,04,13.50
2014,05,28,13,05,13.50
2014,05,28,13,06,13.50
2014,05,28,13,07,13.50
2014,05,28,13,08,13.60
2014,05,28,13,09,13.60
2014,05,28,13,10,13.60
2014,05,28,13,11,13.70
2014,05,28,13,12,13.70
2014,05,28,13,13,13.70
2014,05,28,13,14,13.70
2014,05,28,13,15,13.70
2014,05,28,13,16,13.70
2014,05,28,13,17,13.80
2014,05,28,13,18,13.80
2014,05,28,13,19,13.90
2014,05,28,13,20,14.00
2014,05,28,13,21,14.00
2014,05,28,13,22,14.10
2014,05,28,13,23,14.10
2014,05,28,13,24,14.20
2014,05,28,13,25,14.20
2014,05,28,13,26,14.30
2014,05,28,13,27,14.30
2014,05,28,13,28,14.40
2014,05,28,13,29,14.40
2014,05,28,13,30,14.50
2014,05,28,13,31,14.50
2014,05,28,13,32,14.50
2014,05,28,13,33,14.50
2014,05,28,13,34,14.50
2014,05,28,13,35,14.50
2014,05,28,13,36,14.50
2014,05,28,13,37,14.50
2014,05,28,13,38,14.50
2014,05,28,13,39,14.50
2014,05,28,13,40,14.40
2014,05,28,13,41,14.30
2014,05,28,13,42,14.20
2014,05,28,13,43,14.20
2014,05,28,13,44,14.20
2014,05,28,13,45,14.20
2014,05,28,13,46,14.20
2014,05,28,13,47,14.30
2014,05,28,13,48,14.50
2014,05,28,13,49,14.60
2014,05,28,13,50,14.70
2014,05,28,13,51,14.80
2014,05,28,13,52,14.80
2014,05,28,13,53,14.80
2014,05,28,13,54,14.80
2014,05,28,13,55,14.80
2014,05,28,13,56,14.90
2014,05,28,13,57,14.90
2014,05,28,13,58,14.90
2014,05,28,13,59,14.90
2014,05,28,14,00,14.90
2014,05,28,14,01,14.90
2014,05,28,14,02,14.80
2014,05,28,14,03,14.80
2014,05,28,14,04,14.80
2014,05,28,14,05,14.70
2014,05,28,14,06,14.60
2014,05,28,14,07,14.60
2014,05,28,14,08,14.60
2014,05,28,14,09,14.50
2014,05,28,14,10,14.50
2014,05,28,14,11,14.40
2014,05,28,14,12,14.50
2014,05,28,14,13,14.50
2014,05,28,14,14,14.50
2014,05,28,14,15,14.60
2014,05,28,14,16,14.60
2014,05,28,14,17,14.70
2014,05,28,14,18,14.70
2014,05,28,14,19,14.80
2014,05,28,14,20,14.80
2014,05,28,14,21,14.90
2014,05,28,14,22,15.00
2014,05,28,14,23,15.00
2014,05,28,14,24,15.00
2014,05,28,14,25,15.10
2014,05,28,14,26,15.20
2014,05,28,14,27,15.20
2014,05,28,14,28,15.30
2014,05,28,14,29,15.40
2014,05,28,14,30,15.40
2014,05,28,14,31,15.40
2014,05,28,14,32,15.40
2014,05,28,14,33,15.40
2014,05,28,14,34,15.40
2014,05,28,14,35,15.50
2014,05,28,14,36,15.60
2014,05,28,14,37,15.60
2014,05,28,14,38,15.80
2014,05,28,14,39,15.90
2014,05,28,14,40,16.10
2014,05,28,14,41,16.20
2014,05,28,14,42,16.30
2014,05,28,14,43,16.40
2014,05,28,14,44,16.50
2014,05,28,14,45,16.60
2014,05,28,14,46,16.70
2014,05,28,14,47,16.80
2014,05,28,14,48,16.90
2014,05,28,14,49,16.90
2014,05,28,14,50,16.90
2014,05,28,14,51,17.10
2014,05,28,14,52,17.30
2014,05,28,14,53,17.30
2014,05,28,14,54,17.40
2014,05,28,14,55,17.60
2014,05,28,14,56,17.70
2014,05,28,14,57,17.80
2014,05,28,14,58,17.80
2014,05,28,14,59,17.90
2014,05,28,15,00,18.00
2014,05,28,15,01,18.20
2014,05,28,15,02,18.20
2014,05,28,15,03,18.20
2014,05,28,15,04,18.10
2014,05,28,15,05,18.00
2014,05,28,15,06,17.80
2014,05,28,15,07,17.80
2014,05,28,15,08,17.90
2014,05,28,15,09,18.10
2014,05,28,15,10,18.30
2014,05,28,15,11,18.50
2014,05,28,15,12,18.60
2014,05,28,15,13,18.80
2014,05,28,15,14,18.90
2014,05,28,15,15,19.10
2014,05,28,15,16,19.20
2014,05,28,15,17,19.30
2014,05,28,15,18,19.30
2014,05,28,15,19,19.40
2014,05,28,15,20,19.50
2014,05,28,15,21,19.50
2014,05,28,15,22,19.50
2014,05,28,15,23,19.50
2014,05,28,15,24,19.60
2014,05,28,15,25,19.70
2014,05,28,15,26,19.70
2014,05,28,15,27,19.70
2014,05,28,15,28,19.70
2014,05,28,15,29,19.70
2014,05,28,15,30,19.70
2014,05,28,15,31,19.70
2014,05,28,15,32,19.70
2014,05,28,15,33,19.60
2014,05,28,15,34,19.50
2014,05,28,15,35,19.40
2014,05,28,15,36,19.30
2014,05,28,15,37,19.30
2014,05,28,15,38,19.30
2014,05,28,15,39,19.30
2014,05,28,15,40,19.30
2014,05,28,15,41,19.30
2014,05,28,15,42,19.30
2014,05,28,15,43,19.20
2014,05,28,15,44,19.20
2014,05,28,15,45,19.20
2014,05,28,15,46,19.30
2014,05,28,15,47,19.40
2014,05,28,15,48,19.40
2014,05,28,15,49,19.40
2014,05,28,15,50,19.40
2014,05,28,15,51,19.20
2014,05,28,15,52,19.00
2014,05,28,15,53,18.90
2014,05,28,15,54,18.80
2014,05,28,15,55,18.70
2014,05,28,15,56,18.60
2014,05,28,15,57,18.60
2014,05,28,15,58,18.50
2014,05,28,15,59,18.30
2014,05,28,16,00,18.20
2014,05,28,16,01,18.10
2014,05,28,16,02,18.10
2014,05,28,16,03,18.10
2014,05,28,16,04,18.20
2014,05,28,16,05,18.20
2014,05,28,16,06,18.20
2014,05,28,16,07,18.30
2014,05,28,16,08,18.30
2014,05,28,16,09,18.40
2014,05,28,16,10,18.40
2014,05,28,16,11,18.40
2014,05,28,16,12,18.40
2014,05,28,16,13,18.50
2014,05,28,16,14,18.60
2014,05,28,16,15,18.60
2014,05,28,16,16,18.60
2014,05,28,16,17,18.60
2014,05,28,16,18,18.50
2014,05,28,16,19,18.40
2014,05,28,16,20,18.30
2014,05,28,16,21,18.20
2014,05,28,16,22,18.20
2014,05,28,16,23,18.20
2014,05,28,16,24,18.20
2014,05,28,16,25,18.10
2014,05,28,16,26,18.10
2014,05,28,16,27,18.10
2014,05,28,16,28,18.10
2014,05,28,16,29,17.90
2014,05,28,16,30,17.90
2014,05,28,16,31,17.90
2014,05,28,16,32,18.00
2014,05,28,16,33,18.10
2014,05,28,16,34,18.10
2014,05,28,16,35,18.10
2014,05,28,16,36,18.10
2014,05,28,16,37,18.10
2014,05,28,16,38,18.20
2014,05,28,16,39,18.20
2014,05,28,16,40,18.30
2014,05,28,16,41,18.40
2014,05,28,16,42,18.40
2014,05,28,16,43,18.50
2014,05,28,16,44,18.50
2014,05,28,16,45,18.50
2014,05,28,16,46,18.60
2014,05,28,16,47,18.60
2014,05,28,16,48,18.70
2014,05,28,16,49,18.70
2014,05,28,16,50,18.70
2014,05,28,16,51,18.70
2014,05,28,16,52,18.70
2014,05,28,16,53,18.80
2014,05,28,16,54,18.80
2014,05,28,16,55,18.80
2014,05,28,16,56,18.70
2014,05,28,16,57,18.70
2014,05,28,16,58,18.70
2014,05,28,16,59,18.60
2014,05,28,17,00,18.50
2014,05,28,17,01,18.50
2014,05,28,17,02,18.40
2014,05,28,17,03,18.40
2014,05,28,17,04,18.30
2014,05,28,17,05,18.30
2014,05,28,17,06,18.40
2014,05,28,17,07,18.40
2014,05,28,17,08,18.40
2014,05,28,17,09,18.50
2014,05,28,17,10,18.50
2014,05,28,17,11,18.60
2014,05,28,17,12,18.60
2014,05,28,17,13,18.60
2014,05,28,17,14,18.50
2014,05,28,17,15,18.50
2014,05,28,17,16,18.40
2014,05,28,17,17,18.40
2014,05,28,17,18,18.40
2014,05,28,17,19,18.40
2014,05,28,17,20,18.40
2014,05,28,17,21,18.40
2014,05,28,17,22,18.50
2014,05,28,17,23,18.50
2014,05,28,17,24,18.60
2014,05,28,17,25,18.60
2014,05,28,17,26,18.60
2014,05,28,17,27,18.60
2014,05,28,17,28,18.70
2014,05,28,17,29,18.70
2014,05,28,17,30,18.60
2014,05,28,17,31,18.40
2014,05,28,17,32,18.40
2014,05,28,17,33,18.40
2014,05,28,17,34,18.40
2014,05,28,17,35,18.40
2014,05,28,17,36,18.50
2014,05,28,17,37,18.50